Vineland (AU8), Ontario

12:11 PM EDT on April 21, 2018 (GMT -0400)
Vineland (AU8)

Weather History for CXVN - August, 2013

Change the Weather History Date:

Thursday, August 1, 2013

  Actual Average (CYSN) Record (CYSN)
Temperature  
Mean Temperature 71 °F -  
Max Temperature 77 °F 78 °F 95 °F (2006)
Min Temperature 65 °F 62 °F 53 °F (1998)
Cooling Degree Days 6    
Growing Degree Days 21 (Base 50)    
Moisture  
Dew Point 61 °F    
Average Humidity 73    
Maximum Humidity 92    
Minimum Humidity 44    
Precipitation  
Precipitation 0.47 in - - ()
Sea Level Pressure  
Sea Level Pressure 29.80 in    
Wind  
Wind Speed 5 mph ()    
Max Wind Speed 12 mph    
Max Gust Speed 18 mph    
Averages and records for this station are not official NWS values.
T = Trace of Precipitation, MM = Missing Value Source: Averaged Metar Reports

Daily Weather History Graph

Daily Weather History Graph

Search for Another Location

Airport or City:

Astronomy

Aug. 01, 2013 Rise Set
Actual Time 6:08 AM EDT 8:38 PM EDT
Civil Twilight 5:35 AM EDT 9:11 PM EDT
Nautical Twilight 4:55 AM EDT 9:51 PM EDT
Astronomical Twilight 4:09 AM EDT 10:36 PM EDT
Moon 1:42 AM EDT (8/1) 4:47 PM EDT (8/1)
Length of Visible Light 15h 35m
Length of Day
14h 30m
Waning Crescent, 23% of the Moon is Illuminated
Aug 1
Waning Crescent
Aug 6
New
Aug 14
First Quarter
Aug 20
Full
Aug 28
Last Quarter

Hourly Weather History & Observations

Time (EDT) Temp. Dew Point Humidity Pressure Visibility Wind Dir Wind Speed Gust Speed Precip Events Conditions
12:00 AM 68.9 °F 62.8 °F 81% 29.88 in - East 3.5 mph - N/A   Unknown
1:00 AM 67.8 °F 63.3 °F 85% 29.86 in - ENE 6.9 mph - N/A   Unknown
2:00 AM 68.4 °F 63.1 °F 83% 29.83 in - ESE 4.6 mph - N/A   Unknown
3:00 AM 68.0 °F 63.1 °F 84% 29.80 in - East 3.5 mph - N/A   Unknown
4:00 AM 67.5 °F 62.6 °F 84% 29.78 in - Calm Calm - N/A   Unknown
5:00 AM 66.9 °F 63.9 °F 90% 29.77 in - ESE 2.3 mph - 0.01 in   Unknown
6:00 AM 66.0 °F 63.3 °F 91% 29.76 in - SSW 6.9 mph - 0.40 in   Unknown
7:00 AM 66.4 °F 63.7 °F 91% 29.75 in - SW 5.8 mph - 0.02 in   Unknown
8:00 AM 67 °F 64 °F 88% 29.75 in - NW 5.8 mph - -  
8:00 AM 66.7 °F 64.2 °F 92% 29.75 in - NW 5.8 mph - 0.02 in   Unknown
9:00 AM 66.9 °F 63.9 °F 90% 29.75 in - NW 4.6 mph - 0.02 in   Unknown
10:00 AM 67.1 °F 63.9 °F 89% 29.78 in - NNW 8.1 mph - N/A   Unknown
11:00 AM 69.6 °F 63.9 °F 82% 29.79 in - NW 6.9 mph - N/A   Unknown
12:00 PM 72.3 °F 62.8 °F 72% 29.79 in - WNW 11.5 mph 18.4 mph N/A   Unknown
1:00 PM 73.9 °F 63.7 °F 70% 29.80 in - NW 8.1 mph - N/A   Unknown
2:00 PM 75 °F 63 °F 59% 29.80 in - NW 10.4 mph - -  
2:00 PM 75.2 °F 63.3 °F 66% 29.80 in - NW 10.4 mph - N/A   Unknown
3:00 PM 76.1 °F 61.0 °F 59% 29.80 in - NW 6.9 mph - N/A   Unknown
4:00 PM 77.0 °F 60.8 °F 57% 29.80 in - NW 8.1 mph - N/A   Unknown
5:00 PM 77.0 °F 55.6 °F 47% 29.79 in - NW 6.9 mph - N/A   Unknown
6:00 PM 74.3 °F 59.0 °F 59% 29.80 in - NW 8.1 mph - N/A   Unknown
7:00 PM 73.0 °F 57.6 °F 58% 29.80 in - WNW 5.8 mph - N/A   Unknown
8:00 PM 73 °F 56 °F 44% 29.81 in - WNW 5.8 mph - -  
8:00 PM 73.4 °F 55.8 °F 54% 29.81 in - WNW 5.8 mph - N/A   Unknown
9:00 PM 69.1 °F 56.1 °F 63% 29.82 in - WSW 4.6 mph - N/A   Unknown
10:00 PM 66.9 °F 56.8 °F 70% 29.83 in - West 5.8 mph - N/A   Unknown
11:00 PM 65.5 °F 57.4 °F 75% 29.82 in - WSW 4.6 mph - N/A   Unknown